Home > Weather > Jalpaiguri > Past weeks

Flag for India Past Weather in Jalpaiguri, West Bengal, India — Yesterday and Last 2 Weeks

Now
82 °F

More clouds than sun.


Feels Like: 96 °F
Forecast: 76 / 83 °F
Wind: No wind

Location: Lucknow / Amausi

Current Time: Jul 26, 2016 at 8:14:46 AM

Latest Report: Jul 26, 2016 at 7:00 AM


Visibility: 2 mi

Pressure: 29.65 "Hg

Humidity: 100%

Dew Point: 82 °F

Location of JalpaiguriLocation

Past Weather in Jalpaiguri — Graph

°F

Jalpaiguri Temperature Yesterday

Maximum temperature yesterday: 95 °F (at 12:00 PM)
Minimum temperature yesterday: 81 °F (at 4:00 PM)
Average temperature yesterday: 86 °F

High & Low Weather Summary for the Past Weeks

 TemperatureHumidityPressure
High99 °F (Jul 14, 3:00 PM)100% (Jul 13, 10:00 PM)29.65 "Hg (Jul 13, 10:00 PM)
Low79 °F (Jul 19, 5:00 AM)46% (Jul 19, 4:00 PM)29.39 "Hg (Jul 11, 3:30 PM)
Average87 °F86%29.52 "Hg
* Reported Jul 11 6:30 AM — Jul 26 7:00 AM, Jalpaiguri, Weather by CustomWeather, © 2016

Note: Actual official high and low records may vary slightly from our data, if they occured in-between our weather recording intervals... More about our weather records

Advertising

Jalpaiguri Weather History for the Previous 24 Hours

Scroll right to see more
 ConditionsComfort  
Time TempWeatherWind HumidityBarometerVisibility
7:00 AM
Tue, Jul 26
82 °FMore clouds than sun.No wind100%29.65 "Hg2 mi
6:30 AM82 °FMore clouds than sun.No wind100%29.65 "Hg2 mi
6:00 AM82 °FMore clouds than sun.No wind100%29.62 "Hg2 mi
5:30 AM82 °FMostly cloudy.No wind100%29.62 "Hg2 mi
5:00 AM82 °FMostly cloudy.No wind100%29.62 "Hg2 mi
4:00 AM82 °FMostly cloudy.No wind100%29.62 "Hg2 mi
3:00 AM82 °FMostly cloudy.No wind100%29.62 "Hg2 mi
2:00 AM84 °FMostly cloudy.2 mph94%29.62 "Hg2 mi
1:00 AM84 °FMostly cloudy.No wind94%29.62 "Hg2 mi
12:00 AM84 °FMostly cloudy.No wind94%29.65 "Hg2 mi
11:00 PM
Mon, Jul 25
84 °FMostly cloudy.2 mph100%29.65 "Hg2 mi
10:00 PM84 °FMostly cloudy.No wind100%29.62 "Hg2 mi
9:00 PM84 °FMostly cloudy.No wind94%29.62 "Hg2 mi
8:30 PM84 °FMostly cloudy.No wind100%29.62 "Hg2 mi
8:00 PM84 °FMostly cloudy.No wind100%29.62 "Hg2 mi
7:30 PM84 °FMostly cloudy.No wind100%29.59 "Hg2 mi
6:30 PM84 °FMore clouds than sun.No wind94%29.59 "Hg2 mi
6:00 PM84 °FMore clouds than sun.No wind94%29.56 "Hg2 mi
5:30 PM82 °FMore clouds than sun.No wind100%29.56 "Hg2 mi
5:00 PM82 °FMore clouds than sun.2 mph100%29.56 "Hg2 mi
4:30 PM81 °FLight rain. More clouds than sun.7 mph100%29.53 "Hg2 mi
4:00 PM81 °FLight rain. More clouds than sun.9 mph94%29.56 "Hg2 mi
3:30 PM82 °FThunderstorms. More clouds than sun.9 mph94%29.59 "Hg1 mi
2:30 PM93 °FMore clouds than sun.9 mph75%29.56 "Hg2 mi
2:00 PM95 °FBroken clouds.5 mph75%29.56 "Hg2 mi
1:30 PM93 °FBroken clouds.2 mph75%29.59 "Hg2 mi
1:00 PM95 °FBroken clouds.2 mph71%29.59 "Hg2 mi
12:30 PM95 °FBroken clouds.2 mph71%29.62 "Hg2 mi
12:00 PM95 °FBroken clouds.2 mph71%29.62 "Hg2 mi
11:30 AM93 °FBroken clouds.2 mph75%29.62 "Hg2 mi
11:00 AM91 °FBroken clouds.2 mph80%29.62 "Hg2 mi
10:30 AM91 °FBroken clouds.No wind80%29.62 "Hg2 mi
10:00 AM90 °FBroken clouds.5 mph84%29.62 "Hg2 mi
9:00 AM88 °FScattered clouds.2 mph89%29.65 "Hg2 mi
8:30 AM88 °FScattered clouds.2 mph84%29.62 "Hg2 mi
8:00 AM88 °FScattered clouds.No wind84%29.62 "Hg2 mi
Weather by CustomWeather, © 2016

See weather overviewHow to use our weather pages